Location: Mount Kobau Star Party
(49.1167°N, 119.7333°W)
Time: 13:37:19
(UTC-07:00)

ACS3 Solar Sail - Pass Details

Date: 20 June 2024
Orbit: 992 x 1023 km, 97.4° (Epoch: 12 July)

Event Time Altitude Azimuth Distance (km) Brightness Sun altitude
Exits shadow 21:52:47 - 150° (SSE) 3,073 6.8 -6.2°
Reaches altitude 10° 21:53:36 10° 149° (SSE) 2,761 6.5 -6.3°
Maximum altitude 21:59:42 60° 71° (ENE) 1,128 5.1 -7.0°
Drops below altitude 10° 22:05:48 10° 353° (N) 2,766 8.2 -7.6°
Sets 22:08:19 0° 350° (N) 3,719 9.0 -7.9°
